Regional Weather Roundup
Issued by NWS Albany, NY

Home | Current Version | Previous Version | Text Only | Print | Product List | Glossary On
Versions: 1 2 3 4 5 6 7 8 9 10 11 12 13 14 15 16 17 18 19 20 21 22 23 24 25 26 27 28 29 30 31 32 33 34 35 36 37 38 39 40 41 42 43 44 45 46 47 48 49 50
878
ASUS41 KALY 261010
RWRALY

NEW YORK STATE HOURLY WEATHER ROUNDUP
NATIONAL WEATHER SERVICE ALBANY NY
600 AM EDT THU MAY 26 2016

NOTE: "FAIR" INDICATES FEW OR NO CLOUDS BELOW 12,000 FEET WITH NO
SIGNIFICANT WEATHER AND/OR NO OBSTRUCTIONS TO VISIBILITY.

NYZ032-033-038>043-046>054-057>066-NYZ062>081-082-084-261100-
EAST


CITY           SKY/WX    TMP DP  RH WIND       PRES   REMARKS
ALBANY         MOCLDY    59  54  83 NE3       30.10R
GLENS FALLS    CLOUDY    54  52  93 CALM      30.11R
POUGHKEEPSIE   PTCLDY    58  55  90 CALM      30.09R
MONTGOMERY     CLEAR     54  53  97 CALM      30.10R
WHITE PLAINS   CLEAR     62  54  74 NW7       30.09R
ISLIP          MOCLDY    61  54  77 CALM      30.09R
NEW YORK CITY  MOCLDY    72  56  57 SW3       30.08R
CENTRAL PARK   CLEAR     70  49  47 W3        30.12R
$$

NYZ005>009-017-018-044>046-055-056-261100-
CENTRAL


CITY           SKY/WX    TMP DP  RH WIND       PRES   REMARKS
FULTON         PTCLDY    58  54  86 CALM      30.07R
SYRACUSE       MOCLDY    59  54  83 CALM      30.07R
ROME           CLOUDY    55  54  96 CALM      30.10R
ELMIRA         MOCLDY    53  51  93 CALM      30.11S FOG
BINGHAMTON     PTCLDY    60  52  74 CALM      30.14R
MONTICELLO     PTCLDY    54  52  94 N3        30.16R
$$

NYZ026>034-041>043-087-261100-
NORTH


CITY           SKY/WX    TMP DP  RH WIND       PRES   REMARKS
WATERTOWN      CLEAR     55  53  93 E6        30.08R
FORT DRUM      NOT AVBL
MASSENA        PTCLDY    54  50  86 NE3       30.12R
SARANAC LAKE   CLOUDY    47  44  90 CALM      30.12R
PLATTSBURGH    MOCLDY    57  50  77 NW5       30.12R
$$

NYZ001>004-010>016-019>021-085-261100-
WEST


CITY           SKY/WX    TMP DP  RH WIND       PRES   REMARKS
NIAGARA FALLS  CLOUDY    62  52  69 CALM      30.04S
BUFFALO        CLOUDY    63  52  67 S6        30.06R
DUNKIRK        MOCLDY    66  55  67 SW3       30.05S
JAMESTOWN      CLOUDY    57  52  82 SE5       30.11S
WELLSVILLE     MOCLDY    60  50  69 CALM      30.15R
ROCHESTER      MOCLDY    59  53  80 CALM      30.07R
PENN YAN       PTCLDY    61  53  75 SW8       30.10R
$$

             KEY
       WCI = WIND CHILL INDEX
       VSB = VISIBILITY
       HX  = HEAT INDEX
$$




USA.gov is the U.S. government's official web portal to all federal, state and local government web resources and services.